Port Angeles, WA
on Monday, January 21, 2013

Monday
Previous Day Next Day
Daily Summary
 ActualAverageRecord
Temperature
Mean Temperature °F °F  
Max Temperature 39°F 46°F 57°F (1981)
Min Temperature 35°F 35°F 19°F (1962)
Degree Days
Heating Degree Days 28    
Moisture
Dew Point 35°F   
Average Humidity 94    
Maximum Humidity 97    
Minimum Humidity 86    
Precipitation
Precipitation 0.00 in in in ()
Wind
Wind Speed 6 mph   
Max Wind Speed 9 mph   
Max Gust Speed mph   
Visibility 4 miles   
Events Fog   
Averages and records for this station are not official NWS values.
Key: T is trace of precipitation, MM is missing value
Source: NWS Daily Summary
Seasonal Weather Averages
Time(PST)TemperatureDew PointHumidity Pressure Visibility Wind DirectionWind SpeedGust SpeedPrecipitationEvents Conditions
12:08 AM 37.0°F 36.0°F 96% 30.27 in 1.8 miles SE 6.9 mph - N/A   Overcast
12:19 AM 37.0°F 36.0°F 96% 30.27 in 0.5 miles SE 5.8 mph - N/A Fog Fog
12:34 AM 36.0°F 35.1°F 97% 30.26 in 2.0 miles ESE 6.9 mph - N/A   Overcast
12:43 AM 36.0°F 35.1°F 97% 30.26 in 5.0 miles SE 6.9 mph - N/A   Overcast
12:51 AM 37.4°F 35.6°F 93% 30.26 in 1.8 miles ESE 6.9 mph - N/A   Overcast
12:53 AM 37.0°F 36.0°F 96% 30.27 in 1.0 miles ESE 6.9 mph - N/A   Overcast
1:01 AM 37.0°F 36.0°F 96% 30.26 in 0.5 miles East 5.8 mph - N/A Fog Fog
1:41 AM 37.0°F 36.0°F 96% 30.26 in 0.2 miles ESE 5.8 mph - N/A Fog Fog
1:48 AM 37.4°F 35.6°F 93% 30.26 in 0.5 miles ESE 5.8 mph - N/A Fog Fog
1:53 AM 37.0°F 36.0°F 96% 30.27 in 0.5 miles ESE 5.8 mph - N/A Fog Fog
2:02 AM 37.0°F 36.0°F 96% 30.26 in 0.2 miles SE 6.9 mph - N/A Fog Fog
2:28 AM 36.0°F 35.1°F 97% 30.27 in 0.2 miles SE 6.9 mph - N/A Fog Fog
2:53 AM 36.0°F 35.1°F 97% 30.27 in 0.2 miles SE 8.1 mph - N/A Fog Fog
3:31 AM 36.0°F 35.1°F 97% 30.24 in 0.2 miles SE 6.9 mph - N/A Fog Fog
3:53 AM 36.0°F 35.1°F 97% 30.25 in 0.5 miles SE 6.9 mph - N/A Fog Fog
4:53 AM 36.0°F 34.0°F 93% 30.24 in 0.5 miles ESE 8.1 mph - N/A Fog Fog
5:02 AM 36.0°F 34.0°F 93% 30.23 in 0.2 miles ESE 8.1 mph - N/A Fog Fog
5:46 AM 35.1°F 34.0°F 96% 30.21 in 0.5 miles SE 5.8 mph - N/A Fog Fog
5:53 AM 35.1°F 34.0°F 96% 30.22 in 0.5 miles SE 6.9 mph - N/A Fog Fog
6:09 AM 35.1°F 34.0°F 96% 30.21 in 0.2 miles SE 8.1 mph - N/A Fog Fog
6:28 AM 35.1°F 34.0°F 96% 30.20 in 0.5 miles SE 9.2 mph - N/A Fog Fog
6:53 AM 36.0°F 34.0°F 93% 30.22 in 1.2 miles SE 6.9 mph - N/A   Overcast
7:12 AM 35.1°F 34.0°F 96% 30.20 in 0.8 miles SE 8.1 mph - N/A   Mist
7:25 AM 35.1°F 34.0°F 96% 30.20 in 1.2 miles SE 6.9 mph - N/A   Overcast
7:53 AM 36.0°F 35.1°F 97% 30.22 in 1.5 miles SE 6.9 mph - N/A   Overcast
8:22 AM 35.1°F 34.0°F 96% 30.20 in 0.5 miles South 6.9 mph - N/A Fog Fog
8:43 AM 35.1°F 34.0°F 96% 30.20 in 1.0 miles SE 6.9 mph - N/A   Overcast
8:53 AM 35.1°F 34.0°F 96% 30.22 in 1.2 miles SE 5.8 mph - N/A   Overcast
9:20 AM 36.0°F 35.1°F 97% 30.21 in 2.0 miles SSE 5.8 mph - N/A   Overcast
9:37 AM 36.0°F 35.1°F 97% 30.21 in 3.0 miles SSE 6.9 mph - N/A   Overcast
9:53 AM 36.0°F 35.1°F 97% 30.22 in 4.0 miles SSE 5.8 mph - N/A   Overcast
10:53 AM 37.9°F 36.0°F 93% 30.25 in 10.0 miles SSE 5.8 mph - N/A   Overcast
11:53 AM 37.9°F 36.0°F 93% 30.23 in 10.0 miles SE 4.6 mph - N/A   Overcast
12:53 PM 39.0°F 36.0°F 89% 30.20 in 10.0 miles ESE 5.8 mph - N/A   Overcast
1:53 PM 39.0°F 36.0°F 89% 30.18 in 10.0 miles SE 4.6 mph - N/A   Overcast
2:53 PM 39.0°F 35.1°F 86% 30.16 in 10.0 miles East 6.9 mph - N/A   Overcast
3:44 PM 37.9°F 35.1°F 89% 30.14 in 8.0 miles SE 5.8 mph - N/A   Overcast
3:53 PM 37.9°F 36.0°F 93% 30.16 in 8.0 miles SSE 5.8 mph - N/A   Overcast
4:27 PM 37.9°F 35.1°F 89% 30.14 in 9.0 miles SSE 6.9 mph - N/A   Overcast
4:53 PM 37.9°F 35.1°F 89% 30.15 in 8.0 miles SSE 4.6 mph - N/A   Overcast
5:53 PM 37.0°F 35.1°F 93% 30.14 in 7.0 miles SE 4.6 mph - N/A   Overcast
6:53 PM 37.0°F 34.0°F 89% 30.14 in 8.0 miles SSE 4.6 mph - N/A   Overcast
7:04 PM 37.0°F 34.0°F 89% 30.13 in 9.0 miles Variable 4.6 mph - N/A   Overcast
7:53 PM 36.0°F 34.0°F 93% 30.15 in 7.0 miles Calm Calm - N/A   Overcast
8:34 PM 36.0°F 34.0°F 93% 30.13 in 8.0 miles SSE 4.6 mph - N/A   Overcast
8:53 PM 36.0°F 34.0°F 93% 30.14 in 8.0 miles SE 4.6 mph - N/A   Overcast
9:53 PM 36.0°F 34.0°F 93% 30.14 in 7.0 miles SE 5.8 mph - N/A   Overcast
10:53 PM 36.0°F 33.1°F 89% 30.14 in 8.0 miles South 5.8 mph - N/A   Overcast
11:53 PM 36.0°F 34.0°F 93% 30.14 in 10.0 miles South 3.5 mph - N/A   Overcast
Moon Phase
Jan. 21 Jan. 26 Feb. 03 Feb. 10 Feb. 17
Sunrise:07:54 AM (PST) Moon Rise:12:39 PM (PST)
Sunset:04:57 PM (PST) Moon Set:03:28 AM (PST)

Copyright © 2014 The Weather Underground, Inc.